Time,TemperatureF,DewpointF,PressureIn,WindDirection,WindDirectionDegrees,WindSpeedMPH,WindSpeedGustMPH,Humidity,HourlyPrecipIn,Conditions,Clouds,dailyrainin,SoftwareType,DateUTC
2013-03-06 00:11:00,33.4,33.1,29.73,West,270,14.0,-999.0,99,-99.99,,,0.00,Acu-Link.com,2013-03-06 06:11:00,
2013-03-06 00:26:00,33.4,33.1,29.73,WNW,292,14.5,-999.0,99,-99.99,,,0.00,Acu-Link.com,2013-03-06 06:26:00,
2013-03-06 00:42:00,33.6,33.3,29.75,West,270,9.4,-999.0,99,-99.99,,,0.00,Acu-Link.com,2013-03-06 06:42:00,
2013-03-06 00:57:00,33.6,33.3,29.75,West,270,9.4,-999.0,99,-99.99,,,0.00,Acu-Link.com,2013-03-06 06:57:00,
2013-03-06 01:12:00,33.8,33.5,29.76,WNW,292,7.8,-999.0,99,-99.99,,,0.00,Acu-Link.com,2013-03-06 07:12:00,
2013-03-06 01:27:00,33.6,33.3,29.76,WNW,292,13.0,-999.0,99,-99.99,,,0.00,Acu-Link.com,2013-03-06 07:27:00,
2013-03-06 01:42:00,33.6,33.3,29.75,West,270,11.9,-999.0,99,-99.99,,,0.00,Acu-Link.com,2013-03-06 07:42:00,
2013-03-06 01:57:00,33.6,33.3,29.76,West,270,15.5,-999.0,99,-99.99,,,0.00,Acu-Link.com,2013-03-06 07:57:00,
2013-03-06 02:12:00,33.6,33.3,29.76,West,270,9.9,-999.0,99,-99.99,,,0.00,Acu-Link.com,2013-03-06 08:12:00,
2013-03-06 02:27:00,33.8,33.5,29.76,West,270,8.9,-999.0,99,-99.99,,,0.00,Acu-Link.com,2013-03-06 08:27:00,
2013-03-06 02:42:00,34.0,33.0,29.75,West,270,14.0,-999.0,96,-99.99,,,0.00,Acu-Link.com,2013-03-06 08:42:00,
2013-03-06 02:58:00,34.0,32.5,29.75,West,270,15.5,-999.0,94,-99.99,,,0.00,Acu-Link.com,2013-03-06 08:58:00,
2013-03-06 03:23:00,34.0,32.5,29.74,West,270,8.9,-999.0,94,-99.99,,,0.00,Acu-Link.com,2013-03-06 09:23:00,
2013-03-06 03:38:00,33.8,32.3,29.77,West,270,8.3,-999.0,94,-99.99,,,0.00,Acu-Link.com,2013-03-06 09:38:00,
2013-03-06 03:53:00,33.8,32.5,29.78,West,270,9.9,-999.0,95,-99.99,,,0.00,Acu-Link.com,2013-03-06 09:53:00,
2013-03-06 04:08:00,33.6,32.1,29.79,WNW,292,15.0,-999.0,94,-99.99,,,0.00,Acu-Link.com,2013-03-06 10:08:00,
2013-03-06 04:24:00,33.4,31.9,29.80,West,270,17.1,-999.0,94,-99.99,,,0.00,Acu-Link.com,2013-03-06 10:24:00,
2013-03-06 04:39:00,33.6,32.1,29.80,West,270,11.4,-999.0,94,-99.99,,,0.00,Acu-Link.com,2013-03-06 10:39:00,
2013-03-06 04:54:00,33.6,32.3,29.80,West,270,13.0,-999.0,95,-99.99,,,0.00,Acu-Link.com,2013-03-06 10:54:00,
2013-03-06 05:09:00,33.6,32.1,29.82,West,270,10.4,-999.0,94,-99.99,,,0.00,Acu-Link.com,2013-03-06 11:09:00,
2013-03-06 05:24:00,33.6,32.3,29.83,West,270,13.5,-999.0,95,-99.99,,,0.00,Acu-Link.com,2013-03-06 11:24:00,
2013-03-06 05:39:00,33.4,31.9,29.85,West,270,9.9,-999.0,94,-99.99,,,0.00,Acu-Link.com,2013-03-06 11:39:00,
2013-03-06 05:54:00,33.4,31.9,29.86,NW,315,10.9,-999.0,94,-99.99,,,0.00,Acu-Link.com,2013-03-06 11:54:00,
2013-03-06 06:09:00,33.4,32.1,29.85,West,270,7.3,-999.0,95,-99.99,,,0.00,Acu-Link.com,2013-03-06 12:09:00,
2013-03-06 06:25:00,33.4,32.4,29.88,WNW,292,7.8,-999.0,96,-99.99,,,0.00,Acu-Link.com,2013-03-06 12:25:00,
2013-03-06 06:40:00,33.4,32.6,29.88,West,270,10.4,-999.0,97,-99.99,,,0.00,Acu-Link.com,2013-03-06 12:40:00,
2013-03-06 06:55:00,33.4,32.6,29.89,WNW,292,4.2,-999.0,97,-99.99,,,0.00,Acu-Link.com,2013-03-06 12:55:00,
2013-03-06 07:10:00,33.4,32.9,29.90,West,270,11.9,-999.0,98,-99.99,,,0.00,Acu-Link.com,2013-03-06 13:10:00,
2013-03-06 07:25:00,33.6,33.1,29.90,WNW,292,10.9,-999.0,98,-99.99,,,0.00,Acu-Link.com,2013-03-06 13:25:00,
2013-03-06 07:40:00,33.8,33.5,29.91,West,270,8.3,-999.0,99,-99.99,,,0.00,Acu-Link.com,2013-03-06 13:40:00,
2013-03-06 07:55:00,34.0,33.7,29.94,West,270,10.9,-999.0,99,-99.99,,,0.00,Acu-Link.com,2013-03-06 13:55:00,
2013-03-06 08:10:00,34.0,33.7,29.93,NNW,337,7.8,-999.0,99,-99.99,,,0.00,Acu-Link.com,2013-03-06 14:10:00,
2013-03-06 08:25:00,34.2,33.7,29.94,WNW,292,5.8,-999.0,98,-99.99,,,0.00,Acu-Link.com,2013-03-06 14:25:00,
2013-03-06 08:41:00,34.3,33.8,29.96,West,270,12.5,-999.0,98,-99.99,,,0.00,Acu-Link.com,2013-03-06 14:41:00,
2013-03-06 08:56:00,34.5,34.2,29.96,West,270,4.7,-999.0,99,-99.99,,,0.00,Acu-Link.com,2013-03-06 14:56:00,
2013-03-06 09:11:00,34.7,34.4,29.97,NW,315,0.0,-999.0,99,-99.99,,,0.00,Acu-Link.com,2013-03-06 15:11:00,
2013-03-06 09:26:00,35.2,34.7,29.97,West,270,3.7,-999.0,98,-99.99,,,0.00,Acu-Link.com,2013-03-06 15:26:00,
2013-03-06 09:41:00,36.1,35.1,29.97,West,270,7.3,-999.0,96,-99.99,,,0.00,Acu-Link.com,2013-03-06 15:41:00,
2013-03-06 09:56:00,36.5,35.7,29.98,West,270,5.8,-999.0,97,-99.99,,,0.00,Acu-Link.com,2013-03-06 15:56:00,
2013-03-06 10:11:00,36.7,35.9,29.98,West,270,0.0,-999.0,97,-99.99,,,0.00,Acu-Link.com,2013-03-06 16:11:00,
2013-03-06 10:26:00,37.4,36.4,29.99,WNW,292,1.1,-999.0,96,-99.99,,,0.00,Acu-Link.com,2013-03-06 16:26:00,
2013-03-06 10:41:00,37.9,36.9,30.00,West,270,0.0,-999.0,96,-99.99,,,0.00,Acu-Link.com,2013-03-06 16:41:00,
2013-03-06 10:57:00,37.8,36.2,30.00,West,270,7.8,-999.0,94,-99.99,,,0.00,Acu-Link.com,2013-03-06 16:57:00,
2013-03-06 11:12:00,38.7,36.9,30.00,NW,315,8.9,-999.0,93,-99.99,,,0.00,Acu-Link.com,2013-03-06 17:12:00,
2013-03-06 11:27:00,39.0,36.3,30.01,WNW,292,10.9,-999.0,90,-99.99,,,0.00,Acu-Link.com,2013-03-06 17:27:00,
2013-03-06 11:42:00,39.7,36.7,30.01,West,270,11.4,-999.0,89,-99.99,,,0.00,Acu-Link.com,2013-03-06 17:42:00,
2013-03-06 11:57:00,39.6,36.3,30.01,WNW,292,5.3,-999.0,88,-99.99,,,0.00,Acu-Link.com,2013-03-06 17:57:00,
2013-03-06 12:12:00,39.6,36.6,30.00,NW,315,0.0,-999.0,89,-99.99,,,0.00,Acu-Link.com,2013-03-06 18:12:00,
2013-03-06 12:28:00,40.1,37.1,30.01,NW,315,0.0,-999.0,89,-99.99,,,0.00,Acu-Link.com,2013-03-06 18:28:00,
2013-03-06 12:43:00,39.2,36.0,30.00,NW,315,0.0,-999.0,88,-99.99,,,0.00,Acu-Link.com,2013-03-06 18:43:00,
2013-03-06 12:58:00,39.0,35.5,30.00,West,270,7.3,-999.0,87,-99.99,,,0.00,Acu-Link.com,2013-03-06 18:58:00,
2013-03-06 13:13:00,38.8,36.1,30.00,West,270,0.0,-999.0,90,-99.99,,,0.00,Acu-Link.com,2013-03-06 19:13:00,
2013-03-06 13:28:00,38.8,36.4,30.01,West,270,0.0,-999.0,91,-99.99,,,0.00,Acu-Link.com,2013-03-06 19:28:00,
2013-03-06 13:43:00,38.8,35.8,30.02,NNW,337,0.0,-999.0,89,-99.99,,,0.00,Acu-Link.com,2013-03-06 19:43:00,
2013-03-06 13:58:00,39.6,35.8,30.02,NW,315,0.0,-999.0,86,-99.99,,,0.00,Acu-Link.com,2013-03-06 19:58:00,
2013-03-06 14:13:00,41.5,36.7,30.01,West,270,1.7,-999.0,83,-99.99,,,0.00,Acu-Link.com,2013-03-06 20:13:00,
2013-03-06 14:28:00,39.9,36.4,30.01,West,270,0.0,-999.0,87,-99.99,,,0.00,Acu-Link.com,2013-03-06 20:28:00,
2013-03-06 14:43:00,39.9,36.1,30.01,West,270,7.3,-999.0,86,-99.99,,,0.00,Acu-Link.com,2013-03-06 20:43:00,
2013-03-06 14:59:00,39.6,35.8,30.01,West,270,3.2,-999.0,86,-99.99,,,0.00,Acu-Link.com,2013-03-06 20:59:00,
2013-03-06 15:14:00,42.3,36.9,30.02,West,270,9.9,-999.0,81,-99.99,,,0.00,Acu-Link.com,2013-03-06 21:14:00,
2013-03-06 15:29:00,39.7,35.6,30.01,West,270,3.2,-999.0,85,-99.99,,,0.00,Acu-Link.com,2013-03-06 21:29:00,
2013-03-06 15:44:00,40.6,37.0,30.01,WNW,292,0.0,-999.0,87,-99.99,,,0.00,Acu-Link.com,2013-03-06 21:44:00,
2013-03-06 15:59:00,40.5,35.8,30.01,NW,315,0.0,-999.0,83,-99.99,,,0.00,Acu-Link.com,2013-03-06 21:59:00,
2013-03-06 16:14:00,39.4,35.3,30.03,West,270,0.0,-999.0,85,-99.99,,,0.00,Acu-Link.com,2013-03-06 22:14:00,
2013-03-06 16:29:00,39.2,35.1,30.02,West,270,0.0,-999.0,85,-99.99,,,0.00,Acu-Link.com,2013-03-06 22:29:00,
2013-03-06 16:44:00,39.2,35.4,30.02,North,0,0.0,-999.0,86,-99.99,,,0.00,Acu-Link.com,2013-03-06 22:44:00,
2013-03-06 16:59:00,38.7,35.2,30.03,NE,45,0.0,-999.0,87,-99.99,,,0.00,Acu-Link.com,2013-03-06 22:59:00,
2013-03-06 17:15:00,38.1,35.2,30.02,NW,315,0.0,-999.0,89,-99.99,,,0.00,Acu-Link.com,2013-03-06 23:15:00,
2013-03-06 17:30:00,37.8,35.4,30.04,NW,315,0.0,-999.0,91,-99.99,,,0.00,Acu-Link.com,2013-03-06 23:30:00,
2013-03-06 17:45:00,36.9,35.1,30.04,NE,45,0.0,-999.0,93,-99.99,,,0.00,Acu-Link.com,2013-03-06 23:45:00,
2013-03-06 18:00:00,36.3,34.7,30.05,NNE,22,0.0,-999.0,94,-99.99,,,0.00,Acu-Link.com,2013-03-07 00:00:00,
2013-03-06 18:15:00,35.4,34.1,30.06,NE,45,0.0,-999.0,95,-99.99,,,0.00,Acu-Link.com,2013-03-07 00:15:00,
2013-03-06 18:30:00,34.5,34.2,30.06,NE,45,0.0,-999.0,99,-99.99,,,0.00,Acu-Link.com,2013-03-07 00:30:00,
2013-03-06 18:45:00,33.6,33.3,30.05,NE,45,0.0,-999.0,99,-99.99,,,0.00,Acu-Link.com,2013-03-07 00:45:00,
2013-03-06 19:00:00,33.1,32.8,30.05,NNE,22,0.0,-999.0,99,-99.99,,,0.00,Acu-Link.com,2013-03-07 01:00:00,
2013-03-06 19:15:00,33.1,32.8,30.05,North,0,0.0,-999.0,99,-99.99,,,0.00,Acu-Link.com,2013-03-07 01:15:00,
2013-03-06 19:31:00,32.5,32.3,30.05,North,0,0.0,-999.0,99,-99.99,,,0.00,Acu-Link.com,2013-03-07 01:31:00,
2013-03-06 19:46:00,32.0,31.8,30.05,ENE,67,0.0,-999.0,99,-99.99,,,0.00,Acu-Link.com,2013-03-07 01:46:00,
2013-03-06 20:01:00,31.6,31.4,30.06,West,270,0.0,-999.0,99,-99.99,,,0.00,Acu-Link.com,2013-03-07 02:01:00,
2013-03-06 20:16:00,31.5,31.3,30.05,NNW,337,0.0,-999.0,99,-99.99,,,0.00,Acu-Link.com,2013-03-07 02:16:00,
2013-03-06 20:31:00,30.9,30.7,30.05,ENE,67,0.0,-999.0,99,-99.99,,,0.00,Acu-Link.com,2013-03-07 02:31:00,
2013-03-06 20:46:00,30.9,30.7,30.05,ESE,112,0.0,-999.0,99,-99.99,,,0.00,Acu-Link.com,2013-03-07 02:46:00,
2013-03-06 21:01:00,32.5,32.3,30.06,WNW,292,0.0,-999.0,99,-99.99,,,0.00,Acu-Link.com,2013-03-07 03:01:00,
2013-03-06 21:16:00,33.4,33.1,30.07,West,270,0.0,-999.0,99,-99.99,,,0.00,Acu-Link.com,2013-03-07 03:16:00,
2013-03-06 21:31:00,33.6,33.3,30.06,West,270,0.0,-999.0,99,-99.99,,,0.00,Acu-Link.com,2013-03-07 03:31:00,
2013-03-06 21:47:00,33.6,33.3,30.07,West,270,0.0,-999.0,99,-99.99,,,0.00,Acu-Link.com,2013-03-07 03:47:00,
2013-03-06 22:02:00,33.6,33.3,30.08,WNW,292,0.0,-999.0,99,-99.99,,,0.00,Acu-Link.com,2013-03-07 04:02:00,
2013-03-06 22:17:00,33.6,33.3,30.06,NE,45,0.0,-999.0,99,-99.99,,,0.00,Acu-Link.com,2013-03-07 04:17:00,
2013-03-06 22:32:00,33.6,33.3,30.07,WNW,292,0.0,-999.0,99,-99.99,,,0.00,Acu-Link.com,2013-03-07 04:32:00,
2013-03-06 22:47:00,33.4,33.1,30.06,WNW,292,0.0,-999.0,99,-99.99,,,0.00,Acu-Link.com,2013-03-07 04:47:00,
2013-03-06 23:02:00,33.3,33.0,30.04,WNW,292,0.0,-999.0,99,-99.99,,,0.00,Acu-Link.com,2013-03-07 05:02:00,
2013-03-06 23:17:00,33.3,33.0,30.05,ENE,67,0.0,-999.0,99,-99.99,,,0.00,Acu-Link.com,2013-03-07 05:17:00,
2013-03-06 23:32:00,33.3,33.0,30.05,NE,45,0.0,-999.0,99,-99.99,,,0.00,Acu-Link.com,2013-03-07 05:32:00,
2013-03-06 23:47:00,33.1,32.8,30.06,West,270,0.0,-999.0,99,-99.99,,,0.00,Acu-Link.com,2013-03-07 05:47:00,